Theta_e
314 316 317 318 318 317 315 315 315 316 316 315 315 313 312 311 312 313 313 311 310 309 308 308 310 309 309 310 309 308 309 308
314 316 316 316 317 316 315 315 315 316 313 312 312 312 311 311 312 313 312 310 308 308 308 309 310 309 309 309 309 309 310 310
314 316 317 316 316 315 314 315 316 312 312 312 311 310 310 311 312 313 310 310 307 308 310 309 310 309 310 309 309 311 310 308
314 316 316 315 316 315 314 313 311 314 312 310 309 309 309 311 312 309 308 307 307 308 309 309 309 309 304 305 307 310 307 304
315 316 317 318 316 313 314 312 313 310 310 308 308 308 309 311 309 307 306 305 305 308 309 309 308 310 302 302 304 311 306 306
317 318 319 318 315 314 313 312 310 309 308 307 308 308 309 309 306 305 305 308 307 306 309 308 307 308 299 298 301 313 309 310
318 320 318 316 314 313 313 311 309 308 307 307 307 308 308 305 303 303 304 306 306 307 308 306 309 310 298 298 304 311 311 311
319 320 317 315 312 313 311 309 308 307 306 307 309 309 304 304 305 303 303 304 305 307 305 306 303 306 300 298 305 309 309 312
320 320 316 313 313 312 307 308 307 307 308 308 310 305 304 305 305 304 303 303 305 307 307 306 306 305 307 298 300 311 306 310
320 318 314 312 311 310 308 307 307 307 308 309 306 307 305 306 304 304 305 304 304 304 305 303 304 307 299 297 296 298 303 311
319 316 312 310 310 310 308 307 307 308 309 308 307 308 306 307 304 304 302 305 303 304 305 302 303 306 305 297 297 298 301 307
318 316 312 309 309 309 308 308 308 309 309 308 307 306 307 307 305 304 302 302 306 306 305 302 304 305 307 310 312 311 305 309
318 314 312 309 309 309 308 308 309 309 309 307 303 303 304 305 304 299 301 300 300 307 306 307 305 303 303 299 303 310 311 306
316 312 310 309 309 308 308 309 310 310 308 304 303 304 304 306 308 307 293 293 292 292 293 300 307 296 295 295 293 294 296 300
314 311 311 310 309 307 308 309 311 310 308 305 306 305 307 306 307 306 304 302 294 293 292 293 294 292 295 295 293 295 297 302
312 311 311 310 308 307 308 310 311 311 308 300 309 308 307 307 307 306 307 306 305 306 299 297 294 295 295 295 297 300 310 310
312 311 310 309 307 307 309 310 311 310 308 309 311 310 307 306 308 306 306 307 308 307 310 304 301 295 297 298 300 313 311 311
312 311 310 308 307 308 310 311 310 311 308 298 301 311 309 308 305 303 301 302 301 304 309 311 313 310 313 312 313 312 313 311
312 312 311 309 308 308 309 311 310 312 307 307 298 311 310 308 309 306 306 306 308 306 306 306 287 309 312 314 311 315 313 313
311 310 309 307 310 309 309 310 311 312 311 305 308 311 311 307 303 306 311 312 312 312 311 306 289 314 309 313 312 312 316 315
Wind_Speed
4 5 6 8 8 5 5 5 4 4 4 6 7 9 10 11 10 10 10 12 10 9 8 8 8 8 7 7 6 7 7 5
5 6 8 9 8 6 4 4 4 4 4 6 9 10 11 10 10 11 10 10 9 7 7 7 8 7 6 6 6 6 6 6
8 9 9 9 8 5 5 2 2 2 4 7 10 11 10 10 10 11 11 9 7 7 8 7 7 5 4 6 5 6 7 8
10 11 11 12 9 8 5 2 3 1 6 8 10 10 10 10 10 11 9 8 7 8 7 6 6 4 7 5 5 5 5 4
12 12 13 11 10 4 2 4 5 3 6 9 9 9 10 11 10 8 8 7 7 9 6 5 5 4 7 7 8 5 4 4
12 11 11 10 7 3 5 5 5 4 7 9 8 9 11 10 8 7 8 7 7 6 6 4 3 6 10 10 9 5 3 5
9 8 8 7 4 4 5 5 4 6 8 8 9 10 10 8 8 10 8 8 6 5 4 5 5 8 11 10 7 5 5 6
10 11 8 5 4 5 6 4 5 7 7 8 9 9 6 9 10 8 7 6 5 2 5 6 7 6 9 8 5 3 4 5
10 10 7 4 5 5 5 4 6 6 6 7 8 6 7 9 8 7 6 5 4 6 7 7 7 8 8 8 8 4 4 4
13 11 7 4 5 4 4 5 5 5 6 6 7 7 8 7 8 7 7 5 6 6 6 5 6 7 11 11 10 8 5 7
12 9 3 5 5 4 4 5 5 5 6 7 4 8 7 8 7 8 5 5 4 5 5 4 5 5 5 9 9 8 12 8
11 9 2 5 5 4 4 4 5 5 6 6 6 7 7 7 6 6 5 4 5 5 5 4 4 5 5 5 6 5 7 7
11 8 2 6 5 4 4 5 4 5 6 6 5 4 5 5 6 6 4 4 3 4 4 4 4 5 5 5 7 5 4 4
11 5 5 7 5 4 4 4 4 5 5 4 4 3 3 3 3 5 6 4 3 3 2 4 4 4 5 6 6 5 5 4
8 3 6 6 5 4 4 4 5 6 5 3 3 3 3 3 3 5 4 4 3 8 7 6 7 7 6 5 4 4 5 3
5 5 6 5 4 4 4 4 5 6 4 2 3 3 3 3 3 5 3 4 5 4 7 6 6 6 7 4 4 3 5 6
2 5 6 5 4 4 3 3 5 6 3 2 2 3 4 2 4 5 2 4 4 5 4 5 5 3 3 5 4 5 5 5
4 4 5 4 4 4 2 3 4 5 3 3 2 2 2 3 4 2 2 2 2 3 3 4 4 2 5 5 4 5 5 5
3 5 6 5 5 4 3 3 4 3 2 2 0 2 2 2 3 1 2 2 1 1 2 4 3 2 6 5 5 4 4 4
5 6 6 5 4 4 4 3 3 3 3 0 2 2 2 1 2 3 4 3 1 2 4 5 1 4 3 4 4 4 4 4
Wind_Direction
259 238 241 246 246 247 246 253 300 344 333 315 313 315 316 313 309 313 314 320 313 303 300 299 313 307 311 306 315 315 300 317
262 250 252 258 260 255 270 294 349 354 341 311 318 320 316 314 316 313 315 316 309 300 301 304 312 314 312 324 324 321 319 304
250 257 267 276 288 295 263 290 327 50 318 320 317 315 318 320 320 321 320 316 301 297 309 308 317 316 329 340 323 336 340 345
263 273 309 320 307 272 266 226 104 23 335 318 316 322 326 326 324 332 321 312 308 307 315 320 329 322 359 355 340 336 357 327
333 323 310 306 292 291 261 115 101 20 322 321 326 330 327 328 336 325 316 315 315 320 314 358 357 17 10 360 349 349 350 331
338 337 330 325 336 53 101 102 72 355 325 334 337 334 332 339 332 322 314 317 325 323 21 23 22 53 15 0 338 16 33 28
338 335 322 347 28 127 113 80 31 342 346 346 345 339 342 337 338 335 336 333 333 17 29 41 23 32 14 2 360 43 49 44
343 330 342 4 72 103 92 57 1 358 2 349 348 357 352 344 347 334 330 324 335 32 64 46 34 10 23 10 18 38 37 48
329 337 358 41 123 125 92 34 19 13 355 355 4 15 358 355 350 349 331 336 43 61 59 43 26 25 33 37 37 41 33 54
345 352 12 85 124 113 74 42 30 16 7 9 31 15 14 11 4 2 18 23 56 59 59 34 28 42 35 43 43 39 16 70
355 356 27 123 126 92 57 51 32 20 17 33 35 35 28 27 18 29 30 38 50 60 60 35 36 41 62 57 34 30 49 73
353 347 17 133 131 96 60 48 33 23 30 50 42 38 30 27 19 40 45 37 52 65 61 41 40 49 45 52 74 70 67 69
351 350 72 129 131 102 59 52 23 39 59 60 54 43 31 20 61 24 21 39 1 48 53 47 42 50 34 20 36 75 64 47
348 15 124 129 130 106 68 57 36 40 72 64 48 49 38 5 45 86 70 23 347 53 9 347 106 41 53 56 43 33 36 94
353 57 120 127 127 96 73 57 45 59 71 77 75 51 34 22 48 62 70 116 134 67 45 53 53 64 69 49 41 44 65 110
356 111 120 127 122 85 84 76 65 73 87 82 66 52 51 47 60 76 57 79 70 58 60 49 67 60 52 28 351 211 114 76
102 127 130 137 118 89 91 85 71 69 81 76 67 64 54 51 81 87 75 61 65 77 116 127 103 61 5 56 58 84 92 85
178 157 141 135 104 90 89 84 63 87 78 91 16 96 96 103 84 44 335 18 19 14 39 54 60 108 93 73 103 94 93 95
164 134 141 147 128 126 108 79 42 80 80 113 223 153 106 58 85 49 298 329 16 45 41 52 352 99 81 79 69 74 74 89
140 132 135 139 135 127 109 107 42 79 91 136 223 180 142 77 41 349 328 298 335 96 117 101 123 108 110 91 114 107 80 75